Theta_e
330 331 331 329 326 325 326 324 322 324 326 324 324 330 345 354 336 330 352 358 341 343 354 352 353 359 354 347 353 365 371 368 366 366 366 366 366 364 363 365 367 364 367 368 355 350 356 359 357 357 357 356 356 354 355 355 354 354 353 352 352 352 353 352 351 352 353 354 355 354 354 355 354 354 354 355 356 356 356 356 355 355 355 355 355 355 354
329 328 328 328 326 324 323 323 327 329 327 325 328 336 347 351 344 342 353 354 346 347 352 355 358 357 352 351 354 357 363 365 366 367 366 365 367 371 369 363 361 360 364 365 352 345 352 359 360 360 358 357 357 356 356 355 354 355 353 352 351 350 350 349 348 350 352 353 354 354 353 353 353 353 353 355 355 355 355 355 355 356 356 356 356 355 355
325 328 328 327 326 325 322 329 340 339 336 339 343 345 348 348 344 345 352 354 352 352 353 354 352 350 351 352 351 353 356 359 363 364 363 362 363 370 372 367 361 358 358 357 350 344 348 355 361 363 360 359 358 357 358 357 356 356 355 353 353 351 350 350 348 349 351 353 354 353 353 352 353 353 354 354 354 354 355 355 356 356 356 356 356 355 355
320 326 326 326 326 325 328 334 342 342 344 350 351 352 353 350 344 347 353 353 354 356 355 352 349 348 349 350 350 351 351 352 354 355 358 361 359 361 368 369 367 363 360 357 352 346 346 350 357 363 362 360 358 358 359 359 358 358 356 356 356 354 353 351 350 351 353 353 354 352 351 351 352 353 353 354 353 354 355 356 356 356 356 356 356 355 355
322 329 326 324 326 328 333 338 341 345 351 352 351 352 352 350 352 356 354 350 352 355 355 353 351 349 350 350 349 350 351 352 353 353 358 362 361 361 364 366 367 365 360 353 348 346 346 347 353 360 363 362 359 360 361 361 360 359 358 358 357 357 355 353 353 354 353 353 352 352 352 352 352 353 353 353 353 354 354 354 354 354 355 355 355 355 355
324 333 330 324 325 329 335 342 347 350 351 348 349 350 348 349 354 355 354 352 353 355 356 356 352 349 350 350 346 345 348 350 351 353 354 356 359 360 360 360 362 357 350 346 346 347 348 348 349 355 361 363 362 362 362 361 361 360 359 359 358 358 356 355 355 354 353 353 352 352 352 352 352 352 353 353 354 353 354 353 353 353 353 353 354 353 353
324 333 328 320 322 331 338 342 346 348 347 347 349 348 345 347 349 350 352 350 350 351 354 356 354 350 347 346 346 344 343 344 346 349 350 352 354 355 358 361 361 354 347 346 348 348 347 348 350 354 360 364 363 362 363 362 362 361 360 360 359 358 356 355 355 354 354 353 353 353 353 352 353 353 353 354 354 355 355 353 352 353 353 352 352 352 352
325 327 323 321 327 335 339 338 338 341 342 346 352 351 346 345 346 349 350 348 347 348 348 351 354 352 348 348 349 345 343 342 341 342 346 349 350 351 355 359 357 351 349 349 350 352 351 352 355 359 361 363 363 363 363 363 363 362 361 360 359 358 357 356 355 354 354 354 354 354 354 354 354 354 355 355 355 354 354 353 353 353 353 352 353 351 350
326 325 326 331 330 332 339 340 337 340 338 339 351 353 347 343 344 347 349 347 345 346 345 347 351 352 354 356 352 345 342 342 340 339 342 344 346 346 346 349 351 349 349 351 351 353 357 358 360 362 362 362 364 363 364 363 362 361 361 359 359 357 357 356 355 355 355 355 356 356 355 355 356 356 356 355 355 355 353 353 353 353 352 353 352 351 350
329 328 328 330 325 331 346 345 336 337 334 333 349 356 350 345 344 346 348 347 345 345 346 347 348 349 355 359 353 345 342 341 339 339 340 339 341 343 342 344 348 346 347 351 351 352 355 355 354 355 355 355 354 354 357 361 362 360 360 359 358 358 358 357 357 356 357 356 356 356 356 355 355 356 356 356 355 355 354 353 353 353 353 352 351 351 351
329 324 323 325 328 337 350 344 336 335 332 331 344 353 350 348 346 347 347 343 342 344 345 346 346 347 350 352 351 346 343 341 340 340 340 339 340 342 341 343 346 345 344 347 350 352 351 347 345 345 347 347 345 344 349 356 360 359 359 359 359 358 358 357 357 357 357 356 356 357 357 357 355 354 355 355 355 354 354 353 353 353 352 352 351 350 350
330 324 323 330 336 340 342 340 336 333 331 335 340 341 343 350 350 348 345 339 338 340 341 343 344 344 345 349 351 350 344 340 339 338 338 339 341 341 342 343 345 345 342 344 349 349 346 343 342 343 347 349 348 346 349 354 358 360 359 359 359 358 358 358 357 357 357 356 356 356 357 357 356 355 355 355 355 354 354 353 353 353 352 351 351 350 349
332 330 330 335 341 343 340 338 334 332 338 348 344 340 346 353 348 344 342 338 336 336 337 338 338 338 337 339 346 353 350 343 338 335 335 337 339 339 340 342 344 343 342 344 346 344 342 341 340 341 345 348 349 349 350 352 356 359 359 359 358 358 358 358 356 357 356 356 355 355 355 355 356 355 355 355 355 355 354 354 353 352 351 351 350 350 349
335 337 341 341 342 344 341 335 333 335 345 350 349 350 351 346 340 338 338 336 334 334 334 335 333 333 333 334 337 343 348 347 340 334 333 334 334 335 336 338 341 343 343 343 344 342 341 340 340 340 343 345 348 348 348 351 355 357 359 359 358 357 356 355 356 356 355 355 355 354 354 355 355 354 355 355 354 353 353 354 353 352 352 351 350 350 348
340 343 346 343 340 339 336 334 335 338 341 342 346 350 343 335 334 337 336 335 333 332 332 332 331 330 333 339 338 336 341 345 339 331 332 332 331 333 334 335 338 341 342 343 343 343 342 340 339 339 339 345 347 348 348 349 351 354 357 357 356 356 355 354 355 356 355 355 355 355 355 355 354 354 355 355 354 353 353 354 353 352 352 351 350 350 348
341 338 337 337 335 331 330 333 335 334 332 332 336 338 336 333 333 334 333 333 333 333 331 332 332 330 330 334 335 331 332 335 332 328 329 330 331 332 333 333 336 337 339 342 344 345 345 343 341 339 339 345 348 348 349 349 349 351 353 355 354 355 355 355 354 355 355 355 355 355 355 355 354 355 356 355 354 354 354 354 353 351 350 351 350 349 348
333 332 329 329 329 327 326 329 330 329 328 330 332 332 331 330 332 332 330 331 333 334 332 330 331 330 330 331 331 329 328 329 329 328 328 328 329 329 329 329 331 333 337 341 344 346 347 345 343 343 342 344 345 346 347 348 348 349 351 352 353 355 356 355 355 355 356 356 356 355 355 355 355 355 356 356 355 354 353 353 352 351 351 349 349 348 348
328 329 327 328 327 327 326 325 325 326 327 329 331 332 330 330 332 332 330 329 331 331 330 329 328 328 328 329 329 330 330 331 329 326 325 326 326 326 327 327 328 331 335 338 342 345 346 345 344 344 344 344 345 346 348 349 349 349 348 349 351 353 355 355 355 356 356 354 350 348 350 352 355 354 354 355 355 354 353 353 352 352 351 349 348 347 348
332 330 329 328 327 327 327 326 326 327 328 329 331 331 330 330 331 331 330 330 331 329 329 329 329 329 328 328 329 331 333 333 330 325 324 326 325 325 327 326 327 330 332 333 336 341 344 345 342 342 344 346 346 347 349 350 350 348 347 348 349 349 350 350 352 354 353 348 344 344 347 349 352 354 354 354 355 355 354 353 352 352 351 349 348 348 348
335 331 328 328 327 328 329 328 329 329 330 331 332 332 331 331 330 329 329 329 331 332 332 331 331 331 330 330 331 332 331 331 329 325 324 324 325 325 326 325 326 329 329 330 332 336 340 343 341 340 342 345 346 346 347 350 350 349 348 348 347 346 346 346 348 350 351 349 348 348 348 348 349 352 354 353 353 354 354 353 353 352 352 351 349 349 349
335 332 333 335 335 333 332 329 329 331 330 331 333 334 332 331 330 331 330 328 329 330 330 332 332 331 331 331 331 330 330 330 328 324 324 325 325 325 325 326 327 328 328 328 330 331 333 335 337 340 342 342 343 343 343 348 350 349 349 347 343 342 343 343 345 347 348 350 350 349 349 347 347 349 353 353 352 352 353 353 354 353 352 352 350 350 350
338 333 334 337 336 336 333 329 329 331 331 331 333 333 332 331 331 332 331 329 328 327 327 328 330 330 331 331 330 329 329 328 325 324 325 325 326 326 326 327 327 328 328 328 328 328 329 328 331 336 339 339 340 341 342 347 349 348 347 344 338 338 341 342 343 346 348 349 350 349 348 348 346 348 351 352 352 352 353 353 353 353 353 352 352 351 351
338 334 334 336 336 336 334 331 332 332 331 332 333 332 332 332 331 331 331 331 330 329 327 326 327 329 329 328 327 328 328 326 324 325 326 325 326 327 327 327 328 328 328 327 327 327 328 327 327 330 332 333 335 337 343 347 349 348 346 341 337 337 339 340 342 345 347 348 348 347 347 347 346 347 348 350 351 352 352 352 352 351 352 351 352 352 351
333 333 335 335 333 331 330 332 333 331 330 332 332 331 333 333 330 329 331 331 330 330 330 327 326 327 327 325 326 328 327 326 326 326 327 327 328 328 328 328 328 328 328 328 328 327 327 328 329 330 332 334 336 341 346 348 349 348 347 345 343 341 341 340 341 342 344 346 345 345 345 345 346 345 345 347 349 350 350 351 351 349 350 351 351 352 351
333 331 332 333 332 330 331 332 332 329 327 329 331 331 331 331 329 329 330 330 328 328 329 328 326 327 326 326 326 326 326 326 327 327 328 329 329 328 329 329 329 329 329 329 329 328 328 330 331 331 330 331 336 342 346 347 347 347 346 346 345 345 344 343 341 340 342 344 344 344 344 344 344 344 344 345 346 348 349 350 349 349 349 349 350 352 351
335 334 335 336 336 335 333 333 334 331 327 326 330 330 328 328 329 329 328 327 326 326 327 326 326 327 327 327 327 328 328 328 329 329 329 329 328 328 329 329 329 329 329 329 329 328 330 331 331 330 329 329 332 339 343 345 346 346 346 344 344 344 345 345 343 342 343 343 343 344 344 344 344 343 343 344 345 347 347 347 346 347 348 348 348 350 350
336 336 337 339 338 337 335 333 333 331 326 325 328 327 325 326 327 327 326 326 326 326 327 327 327 328 329 329 329 329 329 329 329 329 329 328 329 329 329 329 329 329 329 329 329 329 330 330 329 330 331 330 329 334 340 344 346 344 344 343 342 342 344 345 345 345 345 344 343 343 343 344 345 344 344 345 344 345 347 347 345 345 347 347 347 348 348
336 335 337 338 338 336 334 330 328 328 326 325 326 325 325 326 326 326 328 328 326 326 327 327 329 329 329 329 329 329 329 329 329 329 329 329 329 330 330 329 329 329 329 330 330 329 329 329 329 331 331 331 329 329 333 341 345 345 343 341 340 342 344 345 345 345 345 344 344 343 343 344 344 344 345 345 344 345 347 348 347 347 347 347 347 346 346
335 333 334 336 333 331 330 329 330 331 329 326 325 325 325 326 327 328 329 328 326 326 328 328 328 329 328 329 329 329 329 329 329 329 330 330 330 330 330 330 330 330 330 330 330 330 329 330 330 331 330 330 330 329 330 337 343 344 342 340 340 341 342 343 344 343 344 343 343 343 343 344 344 344 345 346 345 345 346 347 348 348 347 346 345 345 345
336 335 335 336 334 332 332 333 335 334 332 329 328 326 324 325 327 328 328 327 327 327 328 327 327 328 328 328 328 329 329 329 330 330 330 330 330 330 330 331 331 330 330 330 330 330 330 330 330 331 330 330 331 330 331 337 340 340 339 338 339 340 340 341 342 342 343 343 344 343 343 343 343 344 344 344 345 345 345 346 348 347 347 347 345 344 344
337 337 338 338 338 337 336 335 335 334 331 329 328 327 326 326 328 329 329 329 328 328 328 327 327 327 328 327 328 329 329 329 329 329 330 330 330 330 331 331 330 330 330 331 330 330 330 330 330 331 330 330 330 330 332 336 338 338 336 336 337 338 339 340 341 342 343 343 343 343 343 343 343 343 343 344 344 344 345 346 347 347 348 347 344 344 345
336 337 337 336 336 334 333 332 332 330 329 328 328 328 327 327 328 328 329 329 328 328 328 327 327 327 327 327 328 328 328 329 329 329 329 330 330 330 330 331 331 330 331 331 331 331 330 330 330 331 330 330 330 330 331 334 336 337 335 335 336 337 338 338 340 341 343 343 343 343 343 342 343 343 343 343 344 344 345 346 346 347 347 346 344 345 345
333 334 333 332 332 330 330 329 328 327 328 327 326 325 324 324 326 327 327 328 328 328 328 328 327 328 328 328 328 328 328 329 329 329 329 329 330 330 330 330 330 331 331 330 330 331 331 331 331 331 331 330 331 330 331 332 334 335 335 335 336 337 337 337 338 340 342 343 343 343 343 343 343 343 343 343 344 344 344 344 344 343 343 342 342 343 345
329 330 329 329 329 328 328 328 329 327 327 326 324 323 323 324 326 326 327 328 329 328 328 328 328 328 328 328 329 329 329 329 329 329 329 329 329 330 330 330 330 331 330 330 331 331 331 331 331 331 331 331 331 331 331 331 333 334 335 335 336 337 337 337 338 340 342 343 344 344 344 344 343 343 343 343 343 343 342 342 342 341 340 340 341 340 341
325 326 325 324 324 324 325 326 327 327 327 327 326 325 325 326 326 327 328 329 328 328 328 328 328 329 329 328 328 328 329 329 329 329 329 329 329 330 330 330 330 330 330 331 331 331 331 331 331 331 331 331 331 331 331 331 332 333 333 334 334 335 337 337 338 341 344 344 345 346 345 345 345 344 343 343 342 342 340 340 340 339 339 340 340 340 340
324 325 324 323 322 322 323 323 323 323 324 326 326 325 326 326 327 328 328 328 328 328 328 328 328 329 328 328 328 328 329 329 329 329 329 329 329 330 330 330 330 330 330 331 331 332 332 331 331 331 331 331 332 332 331 331 332 333 334 333 334 336 336 338 339 342 343 345 345 346 345 345 344 343 342 341 341 339 339 338 338 339 339 339 340 340 340
323 324 324 322 322 322 322 321 321 322 323 324 325 326 326 327 327 327 327 328 328 328 328 328 328 328 328 328 328 328 329 329 329 329 329 329 329 330 330 330 330 331 330 331 331 331 331 331 331 331 332 332 332 332 332 332 334 335 335 335 336 337 338 338 339 340 341 343 344 345 344 344 343 342 341 340 339 338 337 337 337 337 338 338 338 339 340
323 323 322 321 321 321 321 320 321 322 324 325 326 326 327 327 328 327 328 328 328 328 327 327 328 328 328 328 328 329 329 329 328 328 329 329 329 330 330 330 330 331 330 331 331 331 331 331 331 331 331 331 331 332 332 332 333 334 335 336 336 336 337 337 339 340 340 341 342 342 342 342 342 342 340 339 338 337 336 336 337 337 338 338 338 338 339
323 322 320 320 320 320 320 321 322 324 325 326 326 327 327 328 327 327 327 327 327 327 327 327 327 328 328 328 328 328 328 328 328 328 328 328 329 329 330 330 330 330 330 330 331 331 331 331 331 331 331 331 332 332 332 332 332 333 334 335 335 335 334 335 337 339 340 340 340 341 341 341 341 341 340 338 338 337 336 336 337 337 337 338 338 338 338
321 321 320 320 320 320 320 322 323 325 326 327 327 327 327 327 327 327 327 327 327 327 327 327 327 327 327 327 327 327 327 327 327 327 327 327 327 328 328 329 329 329 329 329 330 330 330 330 330 330 331 332 332 332 331 332 332 333 334 334 335 334 333 334 336 339 340 340 340 339 339 339 339 339 339 338 337 337 336 336 336 336 337 338 338 338 338
320 320 319 319 320 321 322 323 324 325 326 327 327 327 327 327 327 327 327 327 327 327 326 326 326 326 326 326 326 325 324 325 326 326 326 326 326 326 327 327 328 328 329 329 329 330 330 330 330 330 330 331 332 332 331 332 333 334 333 333 333 333 333 335 337 339 339 340 339 338 338 338 338 338 337 337 336 336 336 336 335 335 336 337 337 337 337
320 319 319 320 320 322 323 324 325 326 327 327 327 326 327 327 327 327 326 326 325 325 324 324 324 324 324 324 324 323 322 323 324 324 324 324 324 325 326 326 327 328 329 329 329 330 330 330 330 330 331 331 331 331 331 332 333 333 333 332 332 333 333 335 338 339 339 339 339 339 338 338 337 337 336 336 336 336 336 335 335 335 334 335 335 335 336
319 319 319 320 321 322 324 325 326 327 327 326 327 327 327 327 326 326 326 325 323 323 324 324 322 322 322 323 323 322 321 322 323 323 322 323 323 323 325 326 327 328 329 329 329 330 330 330 330 330 331 331 331 331 331 330 330 330 332 333 334 334 334 335 337 338 338 339 339 339 339 339 339 338 337 337 336 336 335 335 335 335 334 334 334 334 334
319 319 320 321 322 324 325 326 326 326 325 326 326 327 326 326 326 325 325 323 323 323 323 323 321 321 321 322 322 321 321 322 322 322 322 322 323 324 325 326 328 329 329 329 330 329 329 329 330 330 330 330 330 331 332 331 331 331 333 334 335 335 335 335 336 336 337 338 338 339 339 339 339 338 338 337 337 337 336 336 336 335 335 334 334 335 334
319 320 321 323 324 326 326 326 326 325 325 325 326 326 325 325 325 324 323 322 322 322 322 321 321 320 321 320 320 320 321 321 321 321 322 322 323 324 326 328 328 329 329 329 329 329 330 330 331 331 331 330 330 331 331 332 332 332 332 333 334 334 334 334 334 334 334 335 336 337 338 338 338 338 338 337 337 337 337 336 336 336 335 335 335 335 335
320 322 324 324 325 326 326 327 326 326 325 326 325 324 324 324 324 323 322 321 321 321 321 320 320 320 319 319 320 320 320 320 320 320 321 322 323 324 325 327 328 329 329 328 328 329 329 330 330 331 331 331 331 331 330 331 331 332 331 330 330 331 332 332 333 333 333 334 335 336 336 337 337 337 337 336 336 336 335 335 335 335 335 335 335 336 335
322 324 325 325 326 326 327 327 326 325 325 325 324 323 323 324 323 322 321 321 320 320 319 319 319 319 319 319 319 319 319 319 320 320 320 321 321 321 322 324 326 327 327 327 326 327 327 328 329 330 330 331 330 329 329 329 329 330 330 329 328 329 331 332 333 333 333 333 333 334 334 335 336 336 335 335 334 334 334 334 334 334 334 334 334 334 334
324 325 325 326 326 327 326 326 326 325 324 324 324 323 323 322 321 321 320 320 319 319 319 319 319 318 318 318 319 318 318 319 319 319 318 319 318 318 319 321 322 323 322 322 322 323 324 325 325 326 327 328 328 328 329 329 330 330 331 331 331 331 331 332 333 333 333 333 333 334 334 335 335 334 334 333 333 334 334 334 334 334 334 334 334 334 334
325 326 326 326 326 325 325 325 325 324 323 323 322 321 320 320 319 319 319 319 318 319 319 318 318 317 317 317 317 317 317 317 317 317 316 316 317 316 316 317 318 319 318 317 317 318 319 320 321 322 322 322 323 325 326 327 327 328 328 328 329 329 329 330 332 332 333 334 334 334 334 334 334 334 334 333 333 333 333 333 333 333 333 333 334 334 334
326 326 327 327 325 324 324 325 325 323 322 321 320 319 319 318 318 318 318 318 318 318 318 317 317 316 317 316 316 316 316 316 316 315 315 314 315 315 314 314 314 315 314 313 313 313 314 316 317 317 317 317 318 318 319 319 320 320 320 321 321 322 324 326 327 328 328 331 332 332 332 333 333 334 334 333 333 333 333 333 332 332 333 335 336 335 334
326 326 326 326 325 324 324 324 324 322 320 320 319 318 317 317 317 317 317 317 317 317 317 316 316 315 316 315 315 315 315 314 314 314 313 313 313 313 312 312 311 311 311 311 310 310 310 312 313 313 313 312 313 314 314 314 314 314 314 314 315 315 316 317 318 318 319 321 322 324 326 328 330 331 331 330 329 330 330 331 331 330 331 332 332 332 332
326 325 324 324 325 325 324 323 322 320 318 317 316 316 316 316 316 316 316 316 316 315 316 315 314 314 314 314 314 314 314 313 313 313 312 312 311 311 310 310 309 309 308 308 308 308 308 308 309 310 310 309 309 310 310 310 310 310 311 311 311 311 311 311 312 312 313 313 314 315 317 318 319 320 321 321 321 321 322 324 325 325 325 324 325 326 327
Wind_Speed
5 3 4 7 7 6 8 9 10 11 11 12 7 3 7 6 5 4 7 7 6 5 5 4 3 2 2 2 2 4 4 2 2 3 3 5 5 3 4 5 6 6 6 6 7 10 13 16 17 17 16 16 15 17 17 15 13 12 13 15 16 17 18 19 20 21 22 22 21 22 22 24 24 24 24 24 24 25 25 25 25 25 25 25 26 27 28
7 7 8 9 9 9 10 10 12 12 10 9 5 5 7 5 4 3 5 7 5 1 4 6 6 3 3 5 5 4 3 2 2 3 5 6 6 6 7 7 7 7 7 6 6 8 10 13 16 17 17 18 18 18 19 18 16 14 13 14 16 18 20 21 22 21 21 20 20 19 20 21 23 24 23 23 23 24 24 23 23 24 24 25 26 27 28
6 7 7 9 9 8 8 10 15 14 8 7 6 2 1 1 3 6 8 8 6 5 6 7 7 6 7 9 8 6 5 2 1 3 6 7 7 7 6 6 6 6 6 6 6 7 10 12 15 17 19 20 19 19 19 19 19 16 14 14 15 18 21 21 21 21 21 20 20 20 19 19 20 22 22 22 22 22 21 21 22 23 24 25 26 27 27
5 6 5 8 8 6 7 11 17 15 5 7 7 6 7 4 4 7 8 7 5 6 6 6 7 9 11 10 8 7 6 5 4 4 4 5 6 6 6 6 6 6 6 6 7 10 13 14 15 18 21 20 19 20 20 20 20 17 15 15 16 18 20 19 19 21 22 21 21 20 19 17 18 20 21 21 21 21 22 22 23 24 25 26 27 28 28
4 6 4 5 5 6 5 7 13 12 6 8 9 11 13 10 4 5 6 4 3 5 4 6 8 10 9 8 7 6 6 7 7 8 7 5 5 6 7 7 7 6 6 7 10 13 16 18 19 21 24 23 22 23 22 20 19 17 16 16 17 17 17 17 18 19 20 20 20 19 18 17 17 18 19 20 21 21 22 23 24 26 27 28 28 29 29
4 7 4 5 5 3 1 2 3 5 7 12 13 11 12 12 8 5 4 4 3 5 5 5 6 6 4 3 6 6 6 7 7 8 8 7 7 6 6 8 7 6 7 10 13 15 17 19 21 21 23 24 24 23 20 19 18 17 17 18 18 17 17 17 17 18 18 19 19 19 19 18 18 19 20 21 21 22 22 23 24 25 27 27 28 29 30
2 3 4 5 1 2 3 3 2 2 4 11 13 10 11 12 9 7 7 7 6 6 6 4 2 2 1 1 4 8 8 7 7 8 9 9 9 8 7 6 6 7 9 12 15 16 18 19 19 21 24 26 25 22 20 19 18 18 19 20 20 20 20 19 19 19 19 19 19 20 20 20 21 21 22 22 22 22 22 22 23 24 25 26 27 29 29
1 1 3 0 4 3 1 0 3 5 4 5 7 8 10 11 8 6 6 6 6 6 7 6 3 1 3 2 4 7 9 9 9 8 8 8 9 9 8 7 7 9 11 13 14 16 18 17 17 20 23 24 23 22 20 19 19 19 20 21 21 21 22 21 21 21 20 20 20 21 21 21 22 22 22 22 22 21 21 21 22 23 24 26 26 27 28
2 3 1 1 2 1 4 3 3 4 4 4 2 3 4 8 7 6 6 7 9 8 8 8 5 2 3 5 6 8 10 10 9 9 8 8 8 10 12 13 14 18 20 18 15 15 15 16 19 20 23 24 23 21 20 19 19 20 20 21 22 22 22 22 22 22 22 21 21 21 21 21 21 22 22 22 21 20 20 22 23 23 24 25 25 25 26
2 4 1 1 0 2 3 5 5 2 2 4 2 5 2 7 7 6 6 8 10 9 9 10 8 5 6 6 6 8 10 10 9 10 10 10 10 12 15 17 18 22 26 25 21 21 18 10 7 5 1 4 4 3 9 15 18 20 21 21 22 22 22 23 22 22 21 21 21 21 20 20 20 21 21 20 20 19 20 22 22 23 23 23 23 24 24
1 3 2 1 2 3 5 6 7 6 5 3 4 6 2 5 5 6 5 7 8 7 7 7 6 7 6 5 6 8 8 8 8 8 10 12 13 15 17 18 18 20 24 26 26 29 29 21 16 19 19 14 10 8 9 10 15 19 21 21 22 22 22 22 21 21 21 20 20 19 19 20 20 20 19 18 19 18 19 20 20 21 21 21 23 23 22
2 2 1 0 1 1 4 5 6 7 6 3 5 2 3 4 4 5 4 6 6 6 5 6 6 5 3 4 6 7 7 8 8 9 11 12 12 15 17 17 18 20 22 25 26 28 29 25 18 14 11 4 4 10 13 12 14 17 19 20 20 20 21 20 20 21 21 20 20 18 18 19 18 17 16 17 18 18 18 18 19 19 19 19 21 22 21
3 3 3 0 1 2 4 4 6 8 5 5 4 2 5 3 3 4 4 5 6 6 5 5 4 2 2 4 7 9 7 7 8 11 15 16 16 18 19 16 15 18 19 20 22 23 24 27 24 15 8 8 10 13 15 15 15 17 18 19 18 18 18 18 19 20 21 20 19 18 16 16 16 16 16 16 17 17 17 17 17 18 18 18 19 21 21
2 3 3 1 1 3 4 3 6 7 4 3 1 4 3 2 1 2 5 5 5 5 5 5 4 4 4 7 10 12 10 9 10 10 12 15 17 20 21 19 17 16 16 16 17 18 18 20 22 17 11 15 15 14 15 17 18 18 18 18 18 18 18 18 19 19 19 18 18 17 15 15 15 15 16 16 16 16 16 16 16 16 17 18 18 20 20
1 3 4 2 1 4 4 2 5 7 3 2 3 1 2 3 2 4 5 4 4 4 5 5 6 6 4 3 4 9 9 9 12 13 13 13 14 18 20 21 19 16 15 12 11 12 12 12 12 7 10 18 18 16 19 21 20 18 17 17 17 18 19 19 19 19 18 17 16 16 15 15 15 15 15 15 15 15 15 15 15 16 16 17 17 19 19
1 3 2 1 2 4 6 5 3 1 0 1 1 3 3 3 2 2 3 4 4 3 3 4 6 7 6 3 4 6 7 8 10 13 15 16 17 19 21 23 22 19 15 11 8 8 8 6 2 4 9 14 16 17 20 20 19 17 17 16 16 18 20 21 20 19 17 16 15 15 15 14 14 14 14 14 14 14 15 15 15 15 16 16 16 17 18
3 3 2 0 1 3 7 6 4 3 2 2 4 5 3 4 3 1 2 4 6 5 4 6 6 5 6 6 6 6 6 7 8 11 15 18 19 20 22 26 27 24 19 12 5 5 5 8 8 9 9 10 14 17 19 20 19 17 16 15 16 17 19 20 19 18 18 17 15 15 14 14 13 12 12 13 13 14 15 15 15 15 15 15 15 15 16
4 3 2 2 3 5 6 6 5 5 5 5 5 5 4 5 5 5 5 4 5 6 6 6 6 6 7 7 7 7 6 6 8 10 13 18 21 21 21 25 28 26 22 18 9 2 2 8 12 14 13 11 14 18 20 20 19 18 15 14 16 18 18 17 18 18 15 12 9 9 9 10 11 11 11 12 14 14 14 15 16 16 16 15 15 15 16
4 2 3 1 5 5 4 5 5 6 6 5 5 5 4 5 4 5 6 5 5 6 6 5 5 7 7 7 7 7 6 7 8 9 11 15 19 21 21 23 26 24 21 20 17 10 5 6 11 16 17 14 14 18 19 19 18 17 16 15 16 16 14 12 12 10 6 3 4 8 9 10 11 13 13 13 14 15 15 16 17 18 17 16 16 15 15
4 2 4 2 4 4 4 4 3 3 4 4 4 4 4 4 4 3 4 5 5 5 5 6 5 6 7 7 7 6 6 6 7 9 12 16 18 21 23 23 22 21 19 19 20 18 14 12 13 16 17 15 14 16 18 18 16 14 16 17 15 13 10 7 5 3 1 5 10 13 15 17 16 17 17 16 16 16 16 16 17 18 18 18 18 17 17
3 1 4 5 2 2 4 4 2 2 3 3 5 5 5 5 5 5 6 7 6 6 6 6 6 7 8 7 7 7 6 6 8 10 15 17 19 21 23 22 19 18 17 17 17 18 20 20 19 17 17 17 15 15 18 18 14 14 16 11 8 10 9 9 9 6 4 7 13 18 22 23 21 18 17 18 17 18 17 16 17 17 18 18 18 17 17
1 2 4 1 1 2 4 4 4 4 4 4 5 5 6 6 6 6 6 8 9 9 10 9 7 7 8 8 8 7 6 7 11 14 15 16 18 19 21 21 20 18 18 18 17 17 19 23 22 20 19 21 20 17 17 16 14 15 11 9 18 14 7 3 2 5 9 12 15 20 23 24 20 17 16 16 16 16 17 17 17 17 17 18 18 16 17
3 5 5 3 3 2 5 6 5 5 4 5 5 5 5 6 7 6 6 7 9 10 12 14 12 8 9 12 12 9 8 11 15 16 16 15 15 17 19 19 19 19 20 20 20 19 20 22 22 22 21 23 24 22 18 15 14 12 5 12 10 4 12 11 11 16 18 17 18 20 22 23 22 19 17 15 15 15 15 16 16 16 17 18 18 18 18
3 4 5 4 3 3 4 5 5 5 5 5 5 6 6 6 8 8 7 7 8 8 9 14 16 14 13 15 15 10 10 14 16 16 16 17 16 18 19 19 17 19 20 21 21 22 21 18 18 20 21 22 22 19 15 13 12 8 2 2 4 12 16 17 17 18 17 16 16 18 20 21 22 20 16 14 14 16 17 17 17 17 17 18 19 19 19
4 4 5 4 5 3 2 4 4 5 7 6 4 5 7 8 9 10 8 7 10 10 8 9 15 17 16 16 16 13 12 15 19 19 18 18 18 18 19 19 19 19 19 19 21 21 18 15 15 19 21 21 20 18 14 12 10 6 4 6 11 14 17 19 19 19 19 18 19 20 20 20 21 20 17 15 16 18 20 20 20 19 19 19 20 20 19
4 2 0 2 2 1 2 3 3 5 8 9 5 6 10 12 12 13 12 11 13 13 11 10 13 18 17 16 16 16 15 17 21 22 19 18 18 18 18 19 20 20 20 20 20 19 18 16 17 19 19 18 19 18 16 12 9 7 7 9 13 17 20 20 19 20 21 21 21 22 22 22 21 20 19 19 20 21 20 20 20 20 21 21 21 21 21
3 2 3 4 4 4 2 1 3 6 9 10 8 8 13 16 15 14 15 14 14 14 14 14 15 17 18 17 17 18 18 19 20 20 18 18 19 20 20 21 21 21 22 21 20 19 20 21 21 20 18 16 16 16 16 13 11 10 9 11 14 18 21 21 20 21 22 21 20 20 22 22 22 21 21 23 24 22 20 20 20 20 21 22 21 22 23
2 1 2 3 2 4 4 5 7 9 10 11 11 11 14 15 12 10 10 10 11 13 14 16 17 15 15 17 18 18 18 18 17 17 18 20 21 23 23 23 23 22 22 21 21 21 21 22 22 21 19 18 16 16 16 15 14 12 12 13 16 20 22 21 20 20 22 22 20 20 21 22 23 24 25 25 24 22 21 21 21 21 22 21 21 22 24
2 3 2 3 5 5 5 6 7 7 8 11 12 12 11 9 7 7 6 7 9 10 11 15 17 16 16 17 18 16 15 15 16 18 20 23 24 25 25 25 25 24 23 22 23 23 22 21 21 22 23 22 20 18 17 16 15 14 15 17 19 21 23 23 21 20 20 21 22 22 23 23 24 25 25 24 23 21 20 20 21 22 22 21 20 20 22
3 3 3 4 5 4 4 5 6 6 7 8 8 8 8 7 6 6 7 7 7 8 11 14 16 17 18 18 18 17 17 17 19 21 23 25 26 26 27 26 24 21 20 22 23 23 22 21 21 23 26 25 22 19 17 15 15 15 16 19 21 22 23 24 24 21 20 21 22 22 23 24 25 24 23 22 21 20 20 20 21 21 21 21 22 23 24
4 4 4 5 5 4 4 5 5 6 6 6 6 7 7 7 7 7 8 8 8 9 12 15 16 17 18 19 20 21 21 21 22 23 24 25 26 26 25 24 20 18 19 22 24 24 23 23 23 25 26 25 23 21 19 16 16 17 18 20 22 23 22 23 24 24 23 23 22 21 21 22 23 22 22 21 20 19 20 20 20 21 22 22 23 25 26
5 6 6 6 5 5 5 5 5 6 7 6 6 6 6 6 7 8 8 9 10 12 14 15 15 17 20 22 22 23 22 22 23 24 24 24 24 24 24 23 23 23 23 24 25 25 24 24 25 26 26 25 24 22 20 18 19 20 21 22 22 22 22 22 23 25 25 24 22 21 20 20 21 20 20 20 19 18 18 18 19 20 21 21 24 27 27
4 5 6 6 5 5 6 6 6 6 7 6 6 6 7 8 8 9 10 12 14 14 15 15 17 20 22 22 22 22 22 22 21 21 22 23 23 23 23 23 23 24 25 24 25 26 27 26 27 27 27 26 25 23 21 19 20 21 23 24 24 23 22 23 24 25 25 23 22 21 20 20 20 20 20 19 18 17 16 16 16 16 16 16 21 25 27
3 4 5 6 5 5 6 6 6 6 7 7 7 7 9 10 12 13 15 15 14 14 16 18 20 22 22 21 21 21 20 16 13 15 19 22 23 24 24 24 23 24 24 25 26 26 27 27 26 26 25 25 25 24 22 21 20 21 23 24 25 24 23 23 24 24 23 22 22 21 19 19 19 19 19 19 19 19 20 20 19 17 16 16 19 23 27
5 6 8 8 8 8 7 7 6 7 7 6 6 7 10 13 14 15 16 17 16 17 20 22 22 22 21 20 19 18 17 15 14 17 22 24 24 25 25 23 22 22 22 24 26 26 25 26 25 24 24 24 24 24 24 23 22 22 23 24 25 25 23 22 23 22 21 22 21 20 19 19 19 19 20 21 22 23 23 23 21 19 18 18 16 18 24
9 7 7 8 10 11 10 10 10 10 9 7 7 9 12 15 16 16 18 19 20 21 22 23 22 20 19 18 17 17 18 19 20 21 22 23 24 24 23 21 20 20 19 21 24 25 24 24 24 23 22 23 23 24 24 23 21 21 22 23 25 24 23 22 22 21 21 21 20 19 20 20 20 19 20 21 22 21 20 20 20 18 18 19 17 14 18
11 8 6 8 10 11 12 13 15 14 12 11 11 12 14 16 18 19 19 20 21 21 21 21 20 19 18 19 20 20 20 21 21 21 22 23 24 23 21 19 18 16 13 15 21 23 23 22 22 21 20 22 23 23 21 19 16 15 15 17 19 20 21 22 21 21 21 20 19 19 20 21 21 21 20 19 18 17 17 18 20 19 18 18 17 14 14
10 8 8 10 12 13 14 17 18 16 13 13 14 15 16 18 20 20 19 20 20 21 21 20 20 19 19 19 20 19 20 20 20 21 21 22 22 20 17 16 16 15 14 17 22 25 25 24 23 22 22 23 23 23 22 21 18 15 14 14 15 17 19 21 21 20 21 20 19 19 20 21 21 21 20 18 17 17 18 20 22 21 20 19 18 16 16
7 7 9 12 14 15 16 18 17 16 14 13 14 16 19 20 20 19 18 19 20 21 20 20 19 18 17 17 16 17 18 19 19 20 20 21 21 19 17 18 19 20 21 23 25 25 24 23 23 22 23 22 21 20 20 21 20 18 16 16 17 17 18 19 20 21 21 21 19 19 19 20 21 22 20 19 18 19 21 23 23 23 23 23 22 21 21
6 8 11 13 13 15 16 15 14 15 15 15 15 16 19 20 19 17 17 18 19 20 20 19 17 15 15 16 16 16 18 19 19 19 20 21 20 18 16 17 21 22 22 22 22 22 22 21 20 20 20 19 18 18 18 17 18 18 18 18 19 19 19 20 21 21 22 21 20 19 19 20 21 22 21 20 20 23 24 24 22 20 21 23 23 23 23
8 10 12 13 13 14 14 13 13 15 16 17 17 18 19 19 17 16 15 16 17 18 18 17 16 15 16 17 17 17 18 19 20 20 20 20 18 14 11 13 21 25 24 22 21 20 19 18 18 18 18 17 16 17 17 15 14 15 15 17 19 20 21 21 21 22 22 21 20 20 20 19 20 21 20 20 21 23 24 22 21 20 20 20 20 21 21
10 12 13 13 13 14 14 13 13 14 16 18 18 19 20 19 17 16 15 15 16 17 17 17 16 17 18 17 17 18 19 19 20 21 21 20 18 14 11 15 23 27 24 21 19 17 16 15 15 15 16 16 16 17 16 14 12 13 13 14 17 19 20 20 21 20 20 20 20 20 20 19 19 20 20 20 21 22 22 20 20 19 16 14 13 14 15
12 12 12 12 14 14 14 13 13 14 16 18 19 20 19 18 16 15 14 13 15 16 17 17 17 18 18 18 17 17 17 18 20 21 23 24 24 20 16 18 24 25 21 18 17 16 15 15 14 14 14 14 13 13 13 13 14 15 16 16 17 18 18 19 20 19 19 19 19 20 20 19 19 20 20 20 21 22 22 19 16 13 9 7 9 11 13
14 14 13 13 14 14 12 12 13 13 15 17 19 19 17 16 16 14 13 13 15 17 16 16 17 18 18 18 17 16 17 18 20 20 19 20 21 23 23 22 22 21 18 15 15 15 14 13 13 13 13 11 11 11 11 12 14 16 17 18 18 18 18 19 19 18 17 18 19 20 20 20 20 20 21 21 22 23 21 19 15 12 9 7 8 10 12
15 15 13 12 13 13 12 12 12 13 14 16 16 16 16 16 15 13 12 14 16 17 15 16 17 18 18 18 18 18 18 19 20 18 15 11 12 19 25 24 19 16 14 12 11 12 12 11 10 10 10 10 10 10 10 9 11 13 14 15 17 18 19 18 18 17 16 17 18 19 20 20 21 20 20 21 21 22 20 19 18 18 16 14 13 14 16
15 14 12 11 12 13 13 13 13 13 13 13 13 14 17 17 15 13 13 15 16 16 15 16 17 17 19 19 18 19 21 21 20 19 19 17 16 21 25 24 19 14 13 14 15 16 15 12 10 10 9 9 9 9 9 9 9 10 11 12 14 17 18 17 15 14 13 14 15 16 17 17 18 18 18 19 20 21 21 21 20 19 18 16 15 16 16
13 10 10 11 12 12 13 12 12 12 11 9 8 11 15 16 14 13 14 16 16 15 15 16 16 18 20 20 18 18 20 21 19 20 24 26 24 24 26 26 23 20 19 19 21 22 21 18 15 14 12 11 10 9 9 9 8 8 8 9 11 13 14 13 11 10 10 11 12 13 14 15 15 16 17 17 18 19 19 20 19 18 16 14 13 12 12
9 8 10 11 11 11 12 12 10 10 10 9 9 12 15 16 14 14 15 16 15 15 15 15 16 18 20 20 19 19 20 18 15 17 22 25 25 25 26 25 24 23 22 21 22 23 23 22 21 19 17 15 14 11 8 7 7 7 7 7 8 8 9 9 9 9 9 10 10 12 12 12 13 14 14 14 15 16 17 18 18 17 15 11 10 10 10
7 9 10 10 9 11 12 11 8 8 10 11 12 14 15 14 14 15 16 16 15 15 15 15 16 18 20 19 19 20 21 20 17 17 21 23 23 24 25 25 23 23 23 24 24 24 23 23 23 22 21 21 20 18 15 13 12 11 11 9 8 8 9 9 9 10 10 11 12 13 12 12 12 11 11 12 14 15 15 15 16 16 13 7 7 9 9
8 9 9 8 8 8 8 7 7 8 10 12 13 15 15 14 14 15 17 17 16 15 15 16 17 18 19 19 19 20 21 20 20 20 22 22 22 23 24 24 24 23 24 25 26 26 25 25 25 24 23 24 25 24 23 22 21 21 21 19 17 16 15 13 12 12 11 9 9 8 8 8 8 8 7 7 7 7 6 5 5 7 8 8 11 13 14
8 8 7 7 6 5 5 6 8 9 11 13 14 15 16 15 14 15 16 17 16 15 15 16 17 19 20 20 20 20 20 20 20 21 22 22 22 22 23 24 24 24 25 26 27 27 27 27 26 25 26 27 27 26 26 26 26 26 26 24 23 22 21 19 18 19 18 17 14 11 8 6 5 2 1 3 5 6 7 7 8 9 10 11 12 14 15
8 7 6 6 5 4 5 8 10 11 13 14 14 15 15 15 14 15 16 17 16 16 15 14 16 19 21 20 20 20 21 20 20 21 21 22 22 21 22 23 25 26 27 27 27 28 28 28 27 27 28 28 28 27 27 28 28 28 27 27 27 26 26 25 24 23 22 22 21 20 18 16 14 12 10 10 11 12 12 11 11 11 11 11 13 14 15
Wind_Direction
317 318 328 340 355 355 342 336 328 321 317 315 306 195 176 158 136 216 223 168 158 229 270 299 330 41 101 128 148 177 174 147 150 163 187 221 231 210 191 217 234 225 211 211 204 200 204 212 222 227 225 223 219 214 211 210 212 219 228 234 238 240 239 238 240 241 242 244 246 246 246 246 246 245 243 243 244 245 246 247 250 252 253 254 254 254 253
341 350 356 357 1 350 339 338 333 323 311 306 291 179 172 167 153 169 147 118 109 286 309 326 343 5 72 81 81 102 107 116 233 237 227 228 233 225 206 202 215 225 229 226 216 208 205 208 212 216 220 222 224 226 227 225 221 218 220 226 232 237 242 246 248 245 241 239 239 240 241 243 244 243 243 243 243 243 244 246 249 252 254 255 256 256 255
331 334 351 352 348 339 341 349 344 335 341 7 16 24 1 60 84 81 89 86 53 5 349 354 8 28 52 55 54 64 74 83 250 269 259 245 242 244 239 223 213 217 225 230 234 227 220 219 216 213 215 217 220 227 234 237 238 234 227 227 231 235 239 244 244 241 240 239 235 234 236 239 240 241 240 239 240 242 243 245 249 253 256 257 258 259 258
309 308 338 337 333 350 11 4 345 336 3 57 42 21 12 25 109 96 78 63 20 339 342 9 23 34 46 44 36 37 37 36 42 17 329 285 264 262 264 258 242 228 219 213 221 223 221 224 225 222 220 218 218 222 228 239 249 248 240 235 237 237 237 237 237 238 240 237 232 233 237 239 238 237 235 236 240 244 247 249 252 254 256 257 259 261 260
283 285 317 343 2 22 15 354 344 342 20 64 51 34 23 19 54 83 70 57 352 310 341 36 38 36 40 32 21 20 13 17 28 26 15 352 305 278 266 261 255 246 238 229 227 224 221 222 225 227 225 223 223 226 229 236 243 245 242 239 238 237 235 234 234 234 232 230 229 234 239 240 238 236 236 240 246 251 255 258 259 259 259 260 261 262 262
262 277 322 18 42 56 285 279 357 6 50 65 59 41 24 21 33 56 69 62 10 343 10 42 52 53 45 5 9 14 9 13 17 13 11 2 340 317 291 273 262 255 251 246 242 238 232 227 228 230 228 227 231 233 234 236 235 233 231 230 231 231 229 230 230 229 229 231 235 240 243 245 246 244 245 249 254 259 261 263 264 264 264 264 264 264 264
247 293 21 25 356 202 223 204 116 40 76 80 71 51 29 23 24 32 40 33 15 9 5 344 3 66 58 8 35 23 10 9 10 7 4 0 354 351 346 322 295 286 275 263 257 252 245 239 235 231 224 222 225 228 228 228 228 227 225 223 226 229 230 233 236 235 235 238 241 245 247 248 249 248 250 254 258 260 260 260 262 263 265 266 266 266 267
203 62 61 106 221 225 271 282 42 23 23 49 53 40 19 8 7 17 31 26 15 17 6 345 328 303 312 355 40 22 9 5 4 3 360 1 359 354 359 4 350 335 318 300 288 275 258 242 227 221 216 215 216 218 220 222 223 224 224 223 224 227 231 237 240 240 239 240 242 245 245 244 245 247 251 255 258 258 258 259 261 262 264 266 267 269 272
169 154 164 232 218 333 347 333 355 18 0 331 26 80 4 346 355 4 18 23 15 14 16 9 3 343 356 7 1 357 1 359 357 353 345 351 360 354 352 359 5 5 357 346 334 314 282 240 217 213 211 207 205 205 206 212 220 222 221 221 223 226 231 237 240 240 241 243 244 244 243 242 244 247 250 253 256 257 259 261 261 262 265 267 269 273 276
122 120 105 342 281 263 275 275 284 317 338 320 82 109 4 330 344 356 19 28 13 10 18 11 8 27 35 10 330 331 345 346 349 351 340 337 350 356 354 356 4 11 10 6 3 358 350 327 298 319 314 174 167 213 214 208 210 215 218 221 224 227 231 236 240 241 242 244 244 246 249 250 249 248 248 251 254 257 259 260 261 265 270 272 274 276 278
76 126 159 220 200 228 251 267 289 316 321 319 83 88 342 305 324 348 27 37 16 12 14 7 21 43 32 347 309 316 328 328 334 344 336 329 340 353 355 357 3 10 13 14 16 21 25 23 14 17 29 46 42 351 295 244 217 215 219 224 227 229 233 238 242 242 242 243 245 248 253 253 251 249 249 252 256 258 258 260 265 270 274 276 278 279 282
331 96 115 239 166 244 276 278 292 307 314 5 74 70 275 278 315 341 33 43 19 14 14 13 40 53 20 307 295 301 308 313 325 341 336 324 330 347 354 360 7 8 12 20 31 39 44 47 42 26 14 19 199 224 239 242 232 226 227 233 236 238 241 243 244 244 242 241 242 244 247 251 254 255 255 256 258 258 259 262 268 273 274 276 279 281 286
6 70 101 158 244 249 266 288 311 314 339 45 64 223 232 247 310 340 46 45 14 12 21 23 23 354 329 330 310 295 296 317 328 336 335 330 331 339 344 351 2 5 9 27 48 57 55 54 52 34 337 278 247 237 232 231 235 236 237 241 244 243 243 244 245 245 242 240 240 240 241 245 250 253 254 256 256 257 261 265 268 271 273 275 279 284 289
2 72 107 81 332 268 245 277 341 355 38 88 216 236 216 206 295 15 44 33 11 9 12 10 342 316 7 20 339 309 302 315 321 324 330 332 332 334 336 340 348 358 6 25 53 62 56 57 57 35 323 271 259 259 249 242 241 239 237 239 241 240 242 244 243 240 237 236 236 236 238 239 242 246 249 252 254 255 259 265 267 270 274 277 280 285 291
24 52 55 59 282 289 300 344 12 19 49 187 231 294 21 12 21 39 28 2 2 16 3 349 333 327 2 48 316 296 295 305 315 323 327 328 327 329 332 335 338 346 358 17 54 67 58 66 73 39 292 261 252 250 249 252 253 245 239 239 239 239 240 242 240 235 231 232 233 234 236 236 237 242 247 250 252 253 255 260 262 264 271 276 279 284 292
66 80 53 58 239 310 1 49 88 89 168 209 111 79 40 348 350 48 27 336 325 352 353 326 321 326 330 307 270 288 300 305 315 326 331 332 333 334 334 333 333 334 342 8 56 72 50 48 66 262 257 250 250 254 259 267 269 258 250 247 244 241 241 240 238 236 234 233 232 233 235 235 235 239 246 250 250 250 253 256 257 261 269 273 275 279 288
91 125 127 52 35 28 44 66 98 115 87 48 70 85 56 356 325 298 346 319 302 304 315 309 308 308 304 301 299 303 310 311 318 329 332 333 335 335 335 335 335 332 331 345 42 84 35 356 322 302 293 275 273 281 289 294 291 278 266 255 244 240 240 236 234 237 239 240 239 236 232 231 235 240 247 251 250 248 250 251 252 257 264 269 272 275 281
98 82 21 29 70 60 56 61 54 46 39 27 41 55 28 354 334 327 340 332 313 322 331 326 322 312 301 301 305 307 310 312 314 321 326 328 329 331 332 332 333 335 335 336 345 45 358 333 322 313 308 297 295 304 310 311 306 295 281 265 251 246 244 238 233 234 237 242 262 279 266 247 246 250 252 254 253 249 248 248 250 254 260 265 269 272 275
115 76 315 10 93 84 69 70 54 36 29 20 27 32 355 335 347 356 354 348 340 342 344 337 323 313 311 313 311 308 308 303 303 310 314 317 320 322 324 325 329 336 341 341 340 329 293 297 314 313 309 305 309 318 324 324 317 303 287 277 271 267 269 267 257 252 249 241 276 293 283 262 252 249 247 249 250 249 247 247 246 248 254 260 264 266 270
109 152 277 300 102 101 78 74 64 37 34 19 2 354 333 334 353 355 338 336 335 329 324 318 307 302 306 308 303 300 299 297 299 304 306 308 311 312 315 320 326 331 338 343 345 337 319 302 302 305 306 306 311 320 326 327 328 316 296 288 287 290 299 318 327 324 295 227 227 232 236 234 229 224 223 228 234 241 247 249 246 246 251 257 261 263 266
70 38 310 327 9 19 18 34 27 2 17 13 352 345 341 346 348 337 327 325 315 304 301 299 299 302 298 290 285 288 292 293 292 293 296 301 306 308 311 314 316 320 326 333 340 338 329 321 313 305 304 307 311 318 321 322 328 323 308 312 5 18 17 37 39 18 328 255 240 235 235 235 229 221 219 222 228 235 242 246 248 250 253 258 263 267 269
83 260 271 281 82 298 309 333 340 332 347 19 13 353 343 339 331 323 323 320 311 306 304 299 298 299 293 286 284 284 284 285 285 285 288 294 301 308 311 313 311 311 317 322 325 326 325 325 321 312 306 306 307 310 313 314 319 321 328 61 73 51 25 67 87 262 251 244 242 241 242 242 238 232 231 232 235 238 241 242 244 247 251 256 261 265 267
198 230 236 209 141 205 274 304 321 326 358 31 17 343 326 318 313 312 316 316 313 311 307 304 301 295 291 294 294 291 289 289 288 288 289 291 296 303 307 309 308 308 312 316 317 316 316 317 318 317 315 314 312 307 305 308 316 325 17 97 96 305 273 248 231 229 227 228 231 233 238 242 239 235 234 237 240 241 241 240 242 244 246 250 253 255 258
166 205 221 211 170 199 266 297 315 336 0 7 345 323 310 301 303 305 302 300 303 303 302 304 305 303 298 297 295 290 290 293 293 294 295 296 297 299 300 300 299 303 309 311 312 313 314 317 324 328 329 328 323 314 309 313 318 325 28 110 275 277 272 267 259 247 242 246 242 235 235 238 237 232 230 233 239 242 239 236 236 241 245 245 245 245 248
152 199 217 198 168 179 269 309 320 337 342 334 315 306 302 297 300 303 299 294 298 299 296 300 307 310 308 302 300 301 301 301 302 299 296 296 298 298 296 294 294 298 304 308 310 312 315 322 330 331 331 333 330 319 312 314 315 310 311 310 302 292 285 280 272 261 258 260 255 246 242 241 237 232 226 226 234 240 240 237 235 238 241 243 243 242 242
141 181 273 48 63 45 13 0 334 318 318 313 303 297 299 298 298 300 298 294 294 297 298 298 306 313 313 309 309 311 310 309 309 306 299 296 296 294 291 291 294 298 301 303 305 307 309 314 319 318 319 326 328 321 314 309 303 297 302 309 305 298 292 287 281 275 271 267 260 253 249 246 243 236 231 233 238 239 238 236 235 236 238 240 242 242 240
133 132 82 55 353 322 334 333 274 280 294 300 301 300 301 300 298 299 302 301 300 304 308 306 306 311 312 311 311 310 307 307 308 305 301 297 295 294 294 293 295 297 296 295 296 298 302 306 308 306 305 310 317 318 313 301 291 293 300 301 296 292 288 284 277 275 276 274 267 259 253 249 247 243 239 240 240 238 236 234 233 235 239 241 243 243 241
156 200 141 137 219 260 257 259 268 275 287 297 302 305 304 303 303 305 305 304 307 312 313 310 308 307 306 307 307 305 302 302 301 300 300 299 298 298 298 297 296 295 292 291 292 294 297 300 299 296 296 299 303 309 305 291 280 284 295 295 287 283 283 280 271 267 273 277 272 265 260 256 252 249 247 245 242 240 240 240 238 239 242 245 246 244 240
204 235 236 213 218 235 260 283 289 289 295 304 310 311 309 309 313 313 302 299 306 309 307 305 305 302 300 301 302 299 296 297 296 296 297 297 297 297 297 296 295 294 291 291 292 292 292 293 291 290 293 297 300 303 300 286 272 276 289 293 287 281 280 280 274 268 271 276 275 272 268 263 257 253 252 249 247 245 245 244 243 242 241 242 242 241 238
257 259 283 288 274 266 283 299 301 298 299 305 311 311 308 309 312 306 298 299 303 302 301 302 303 302 300 299 297 295 293 292 293 294 294 293 293 293 293 293 293 293 291 290 290 289 287 285 283 284 289 294 298 301 295 279 266 271 283 287 287 285 282 281 279 275 272 273 275 275 272 267 261 255 253 254 254 252 249 248 248 246 243 238 234 234 234
315 319 323 317 306 305 308 302 299 299 298 300 304 304 305 309 308 303 301 303 303 301 303 303 303 301 300 299 297 296 294 292 292 292 292 292 291 290 289 289 286 284 284 286 287 288 286 281 278 282 287 291 293 297 292 275 262 267 275 279 282 284 283 280 280 279 277 275 275 275 273 269 264 259 255 254 255 255 254 255 253 250 245 237 231 231 233
352 339 337 332 326 325 319 307 305 306 302 301 303 300 297 301 304 304 306 305 303 302 303 303 302 301 302 302 301 299 296 294 293 293 293 293 292 290 289 288 284 280 279 281 285 288 286 280 277 281 287 288 288 290 288 275 263 262 267 271 274 278 281 279 278 278 277 274 273 273 272 269 266 262 256 253 253 255 260 264 263 258 249 237 231 232 234
11 344 331 323 322 328 324 315 313 309 300 297 295 292 295 301 304 303 303 301 300 302 302 301 301 302 303 303 302 299 297 296 294 293 293 293 292 292 291 290 288 283 281 282 286 289 286 281 279 282 286 286 285 284 284 278 268 263 264 266 267 268 273 276 274 273 272 271 270 271 272 269 266 262 258 254 251 251 255 262 270 277 277 266 253 247 243
330 299 290 284 286 300 308 308 308 305 301 299 296 294 301 307 307 305 305 303 302 302 302 301 301 302 302 302 300 298 298 297 294 294 294 294 294 294 294 293 290 287 285 286 288 289 287 285 284 286 287 286 283 281 281 279 272 264 263 264 262 261 266 272 271 266 263 264 267 269 270 268 264 260 256 254 251 247 247 249 252 259 269 275 275 268 258
313 298 297 299 299 301 301 301 304 305 303 301 300 301 307 309 307 307 307 306 304 303 304 304 303 302 301 300 299 298 297 296 295 296 296 295 294 295 296 296 292 287 285 285 286 287 288 289 288 287 286 285 283 281 279 280 276 269 264 263 260 257 260 267 268 262 257 259 263 265 266 267 264 259 254 252 251 251 253 254 254 255 256 258 264 272 268
311 304 307 311 315 315 312 308 308 307 301 295 296 303 308 310 308 307 307 307 306 306 308 308 307 304 302 302 302 301 300 299 299 299 297 297 297 297 296 295 292 287 285 284 285 287 289 290 289 287 287 286 284 282 280 279 278 275 270 264 258 254 256 262 263 261 258 258 258 260 265 268 267 262 256 254 255 257 259 260 261 261 262 260 257 260 267
310 313 318 318 319 319 313 311 313 311 304 299 301 305 309 309 309 309 309 309 309 310 311 311 309 305 303 303 304 304 302 302 304 304 301 300 300 298 295 293 292 288 282 280 285 289 292 291 290 289 287 284 284 284 283 281 280 282 281 270 256 250 256 263 265 264 262 259 256 258 262 264 263 262 260 257 258 261 264 265 264 260 259 260 258 253 258
321 331 333 326 322 317 312 314 317 315 307 303 307 311 312 311 310 311 312 313 314 315 315 314 312 309 306 306 307 307 307 309 312 313 311 309 306 302 297 294 292 287 280 281 287 290 291 289 287 287 286 284 283 283 283 281 279 278 276 267 255 250 255 263 266 266 265 262 258 256 258 259 260 262 259 254 253 254 254 257 258 255 250 249 247 241 241
323 327 328 326 322 316 313 316 318 314 309 309 312 314 315 314 314 314 314 315 319 321 321 319 319 317 315 314 314 313 314 318 322 321 320 319 315 309 302 298 295 290 287 287 290 290 289 289 289 288 287 287 286 285 285 283 279 272 264 258 256 255 258 264 267 266 266 265 262 259 257 257 259 261 258 251 247 245 244 245 248 248 247 245 243 236 230
296 306 317 319 316 313 311 311 309 310 314 316 315 314 316 316 316 316 317 320 325 328 328 325 324 324 324 325 326 323 323 326 326 324 324 323 319 314 307 304 305 305 303 298 293 289 288 291 292 291 289 288 287 287 288 284 278 272 264 259 259 260 260 263 265 263 263 264 263 260 258 257 259 261 260 255 250 249 250 251 254 255 254 253 251 246 240
293 303 310 310 308 308 306 304 305 313 318 319 317 317 319 318 316 317 321 326 332 337 336 334 333 331 329 329 330 331 332 331 328 327 327 324 320 317 313 309 312 316 316 311 306 302 300 300 298 295 294 293 290 290 292 290 282 275 268 262 262 264 262 260 259 258 259 261 262 261 260 260 261 264 265 262 260 259 260 262 266 268 266 264 263 263 261
293 301 305 305 306 306 306 307 314 318 317 317 320 323 324 323 320 320 326 334 341 343 341 339 339 337 334 333 334 336 335 332 329 328 326 322 316 311 303 305 313 318 319 317 319 321 318 314 310 306 302 298 295 295 296 289 281 279 277 268 264 263 262 259 257 256 258 260 261 262 263 263 264 266 265 261 259 260 262 267 273 276 279 288 306 318 315
291 298 301 302 304 307 309 315 323 321 317 318 323 327 327 327 326 327 333 344 348 344 340 339 340 340 337 337 339 338 333 330 330 329 325 321 319 315 306 302 310 316 319 318 320 322 318 315 319 323 318 308 300 297 292 280 273 276 276 269 262 261 262 262 261 260 260 261 260 260 261 260 259 260 260 259 258 261 265 268 272 274 281 308 332 339 336
292 301 303 303 307 311 315 321 327 325 319 319 325 329 330 332 334 337 345 351 348 343 340 340 342 342 340 338 338 334 328 328 328 326 321 320 322 325 327 324 321 322 324 323 322 325 326 324 324 324 319 312 305 300 292 279 272 272 271 266 263 264 265 266 267 267 266 265 266 265 263 261 259 257 257 257 259 261 261 259 255 252 251 257 268 275 279
299 305 306 309 316 320 319 321 325 324 319 321 329 337 339 339 340 347 355 353 346 344 344 344 343 343 341 338 335 332 330 329 327 325 325 321 319 329 340 345 341 334 336 344 351 353 353 350 341 331 320 313 308 305 296 281 276 279 280 277 274 272 271 271 273 274 273 272 271 270 269 267 265 264 263 263 265 266 265 261 257 254 249 244 245 249 250
302 305 310 321 328 327 325 328 332 332 331 333 339 344 345 345 347 355 359 355 348 346 348 349 348 347 345 342 340 338 338 338 340 345 350 350 342 345 356 5 6 2 8 24 29 24 16 7 358 350 340 328 318 308 295 280 273 275 277 274 272 276 281 284 284 283 280 276 274 273 273 271 269 268 269 271 272 272 271 269 265 258 248 242 243 244 239
299 308 323 330 331 332 338 345 348 347 348 347 341 340 344 348 353 358 359 358 357 356 356 355 355 354 353 352 353 351 348 347 349 358 3 4 1 2 7 13 17 21 28 34 31 26 23 21 17 10 1 353 346 332 313 299 292 287 282 274 271 279 290 297 300 300 294 284 277 276 275 272 272 273 275 276 276 274 271 267 260 250 240 237 237 233 225
308 321 326 328 336 347 354 356 358 359 358 354 349 347 350 354 360 2 2 2 2 2 2 1 0 0 0 0 2 3 2 359 356 0 6 10 12 12 13 15 18 23 27 29 27 24 23 22 22 20 18 16 15 11 359 344 337 331 321 307 297 299 310 318 321 320 312 300 292 287 279 274 279 284 284 279 275 271 266 258 249 242 238 234 222 207 199
326 326 326 342 7 12 2 355 360 9 10 8 5 3 3 5 8 8 7 6 5 3 3 2 2 2 3 4 5 7 10 11 10 8 11 15 18 19 19 21 22 23 25 28 28 25 23 23 24 26 28 29 30 30 32 32 30 26 22 14 4 360 358 352 340 328 314 301 295 291 287 285 289 288 278 269 264 261 259 256 251 244 235 210 167 154 152
336 335 343 7 24 16 358 356 8 20 24 23 21 18 18 20 20 16 13 14 13 9 9 10 8 5 5 6 8 9 11 14 16 17 18 21 22 23 23 25 26 26 28 31 30 27 26 28 29 28 31 35 36 35 36 39 40 38 36 33 29 25 23 19 13 8 359 341 321 307 298 297 294 279 262 261 261 250 241 244 238 215 186 145 122 118 120
351 359 11 22 20 11 20 44 52 49 45 43 40 36 33 33 33 29 25 24 23 20 18 19 18 15 13 13 14 14 15 18 21 22 23 24 26 27 28 29 30 31 32 34 34 32 32 34 33 33 35 38 38 37 38 40 42 41 40 37 33 31 31 30 29 29 29 27 28 32 35 32 30 40 51 45 61 92 116 121 120 125 128 120 111 111 113
18 21 27 33 31 42 74 80 74 69 66 62 58 52 46 43 42 38 33 30 30 28 25 23 23 22 21 20 20 21 23 26 28 29 29 29 30 30 31 31 33 35 36 37 37 37 37 38 38 39 39 39 39 39 39 40 41 41 41 41 39 37 36 35 34 34 36 39 41 43 44 45 49 54 55 55 62 74 87 98 104 107 106 102 101 101 101